Location: Silverdale
(47.6506°N, 122.6941°W)
Time: 03:25:23
(UTC+00:00)

Altair - Pass Details

Date: 05 October 2022
Orbit: 1501 x 1682 km, 47.2° (Epoch: 05 December)

Event Time Altitude Azimuth Distance (km) Brightness Sun altitude
Rises 13:34:06 0° 244° (WSW) 4,766 - -7.8°
Exits shadow 13:35:26 - 244° (WSW) 4,342 9.3 -7.6°
Reaches altitude 10° 13:37:09 10° 243° (WSW) 3,806 9.0 -7.3°
Maximum altitude 13:46:51 75° 160° (SSE) 1,690 7.8 -5.7°
Drops below altitude 10° 13:56:55 10° 78° (ENE) 3,934 11.3 -4.0°
Sets 14:00:07 0° 77° (ENE) 4,933 12.0 -3.4°
